"Time","Value","Approval","myLocation"
"2023-07-11 20:00",5.009,"Approved","OW387"
"2023-07-11 21:00",5.00203146983813,"Approved","OW387"
"2023-07-11 22:00",4.99806293967625,"Approved","OW387"
"2023-07-11 23:00",4.99609440951438,"Approved","OW387"
"2023-07-12 00:00",4.99412587935251,"Approved","OW387"
"2023-07-12 01:00",4.99115734919063,"Approved","OW387"
"2023-07-12 02:00",4.99418881902876,"Approved","OW387"
"2023-07-12 03:00",4.99222028886689,"Approved","OW387"
"2023-07-12 04:00",4.99325175870502,"Approved","OW387"
"2023-07-12 05:00",4.99228322854314,"Approved","OW387"
"2023-07-12 06:00",4.99131469838127,"Approved","OW387"
"2023-07-12 07:00",4.9913461682194,"Approved","OW387"
"2023-07-12 08:00",4.99137763805752,"Approved","OW387"
"2023-07-12 09:00",4.99140910789565,"Approved","OW387"
"2023-07-12 10:00",4.99044057773378,"Approved","OW387"
"2023-07-12 11:00",4.99047204757191,"Approved","OW387"
"2023-07-12 12:00",4.99050351741003,"Approved","OW387"
"2023-07-12 13:00",4.98953498724816,"Approved","OW387"
"2023-07-12 14:00",4.98956645708629,"Approved","OW387"
"2023-07-12 15:00",4.98959792692441,"Approved","OW387"
"2023-07-12 16:00",4.98962939676254,"Approved","OW387"
"2023-07-12 17:00",4.98966086660067,"Approved","OW387"
"2023-07-12 18:00",4.98969233643879,"Approved","OW387"
"2023-07-12 19:00",4.98872380627692,"Approved","OW387"
"2023-07-12 20:00",4.98875527611505,"Approved","OW387"
"2023-07-12 21:00",4.98978674595318,"Approved","OW387"
"2023-07-12 22:00",4.9898182157913,"Approved","OW387"
"2023-07-12 23:00",4.99084968562943,"Approved","OW387"
"2023-07-13 00:00",4.98988115546756,"Approved","OW387"
"2023-07-13 01:00",4.98891262530568,"Approved","OW387"
"2023-07-13 02:00",4.98894409514381,"Approved","OW387"
"2023-07-13 03:00",4.98797556498194,"Approved","OW387"
"2023-07-13 04:00",4.98900703482007,"Approved","OW387"
"2023-07-13 05:00",4.99003850465819,"Approved","OW387"
"2023-07-13 06:00",4.99006997449632,"Approved","OW387"
"2023-07-13 07:00",4.99010144433445,"Approved","OW387"
"2023-07-13 08:00",4.99013291417257,"Approved","OW387"
"2023-07-13 09:00",4.9901643840107,"Approved","OW387"
"2023-07-13 10:00",4.99019585384883,"Approved","OW387"
"2023-07-13 11:00",4.99022732368695,"Approved","OW387"
"2023-07-13 12:00",4.99125879352508,"Approved","OW387"
"2023-07-13 13:00",4.99129026336321,"Approved","OW387"
"2023-07-13 14:00",4.99132173320134,"Approved","OW387"
"2023-07-13 15:00",4.99135320303946,"Approved","OW387"
"2023-07-13 16:00",4.99138467287759,"Approved","OW387"
"2023-07-13 17:00",4.99141614271572,"Approved","OW387"
"2023-07-13 18:00",4.99144761255384,"Approved","OW387"
"2023-07-13 19:00",4.99147908239197,"Approved","OW387"
"2023-07-13 20:00",4.9915105522301,"Approved","OW387"
"2023-07-13 21:00",4.99254202206822,"Approved","OW387"
"2023-07-13 22:00",4.99157349190635,"Approved","OW387"
"2023-07-13 23:00",4.99160496174448,"Approved","OW387"
"2023-07-14 00:00",4.9916364315826,"Approved","OW387"
"2023-07-14 01:00",4.99166790142073,"Approved","OW387"
"2023-07-14 02:00",4.99169937125886,"Approved","OW387"
"2023-07-14 03:00",4.99273084109699,"Approved","OW387"
"2023-07-14 04:00",4.99176231093511,"Approved","OW387"
"2023-07-14 05:00",4.98979378077324,"Approved","OW387"
"2023-07-14 06:00",4.98882525061137,"Approved","OW387"
"2023-07-14 07:00",4.98885672044949,"Approved","OW387"
"2023-07-14 08:00",4.99088819028762,"Approved","OW387"
"2023-07-14 09:00",4.98991966012575,"Approved","OW387"
"2023-07-14 10:00",4.99095112996388,"Approved","OW387"
"2023-07-14 11:00",4.990982599802,"Approved","OW387"
"2023-07-14 12:00",4.99101406964013,"Approved","OW387"
"2023-07-14 13:00",4.99104553947826,"Approved","OW387"
"2023-07-14 14:00",4.99207700931638,"Approved","OW387"
"2023-07-14 15:00",4.99210847915451,"Approved","OW387"
"2023-07-14 16:00",4.99213994899264,"Approved","OW387"
"2023-07-14 17:00",4.99217141883076,"Approved","OW387"
"2023-07-14 18:00",4.99320288866889,"Approved","OW387"
"2023-07-14 19:00",4.99323435850702,"Approved","OW387"
"2023-07-14 20:00",4.99326582834515,"Approved","OW387"
"2023-07-14 21:00",4.99329729818327,"Approved","OW387"
"2023-07-14 22:00",4.9933287680214,"Approved","OW387"
"2023-07-14 23:00",4.99336023785953,"Approved","OW387"
"2023-07-15 00:00",4.99439170769765,"Approved","OW387"
"2023-07-15 01:00",4.99342317753578,"Approved","OW387"
"2023-07-15 02:00",4.99345464737391,"Approved","OW387"
"2023-07-15 03:00",4.99448611721203,"Approved","OW387"
"2023-07-15 04:00",4.99351758705016,"Approved","OW387"
"2023-07-15 05:00",4.99454905688829,"Approved","OW387"
"2023-07-15 06:00",4.99458052672642,"Approved","OW387"
"2023-07-15 07:00",4.99561199656454,"Approved","OW387"
"2023-07-15 08:00",4.99664346640267,"Approved","OW387"
"2023-07-15 09:00",4.9966749362408,"Approved","OW387"
"2023-07-15 10:00",4.99670640607892,"Approved","OW387"
"2023-07-15 11:00",4.99673787591705,"Approved","OW387"
"2023-07-15 12:00",4.99676934575518,"Approved","OW387"
"2023-07-15 13:00",4.9958008155933,"Approved","OW387"
"2023-07-15 14:00",4.99583228543143,"Approved","OW387"
"2023-07-15 15:00",4.99686375526956,"Approved","OW387"
"2023-07-15 16:00",4.99689522510769,"Approved","OW387"
"2023-07-15 17:00",4.99692669494581,"Approved","OW387"
"2023-07-15 18:00",4.99795816478394,"Approved","OW387"
"2023-07-15 19:00",4.99798963462207,"Approved","OW387"
"2023-07-15 20:00",4.99802110446019,"Approved","OW387"
"2023-07-15 21:00",4.99805257429832,"Approved","OW387"
"2023-07-15 22:00",4.99808404413645,"Approved","OW387"
"2023-07-15 23:00",4.99811551397458,"Approved","OW387"
"2023-07-16 00:00",4.9981469838127,"Approved","OW387"
"2023-07-16 01:00",4.99817845365083,"Approved","OW387"
"2023-07-16 02:00",4.99420992348896,"Approved","OW387"
"2023-07-16 03:00",4.99724139332708,"Approved","OW387"
"2023-07-16 04:00",4.99827286316521,"Approved","OW387"
"2023-07-16 05:00",4.99930433300334,"Approved","OW387"
"2023-07-16 06:00",5.00033580284146,"Approved","OW387"
"2023-07-16 07:00",5.00036727267959,"Approved","OW387"
"2023-07-16 08:00",5.00039874251772,"Approved","OW387"
"2023-07-16 09:00",5.00043021235585,"Approved","OW387"
"2023-07-16 10:00",5.00046168219397,"Approved","OW387"
"2023-07-16 11:00",5.0014931520321,"Approved","OW387"
"2023-07-16 12:00",5.00052462187023,"Approved","OW387"
"2023-07-16 13:00",5.00055609170835,"Approved","OW387"
"2023-07-16 14:00",5.00158756154648,"Approved","OW387"
"2023-07-16 15:00",5.00161903138461,"Approved","OW387"
"2023-07-16 16:00",5.00165050122273,"Approved","OW387"
"2023-07-16 17:00",5.00068197106086,"Approved","OW387"
"2023-07-16 18:00",5.00171344089899,"Approved","OW387"
"2023-07-16 19:00",5.00174491073712,"Approved","OW387"
"2023-07-16 20:00",5.00177638057524,"Approved","OW387"
"2023-07-16 21:00",5.00180785041337,"Approved","OW387"
"2023-07-16 22:00",5.0018393202515,"Approved","OW387"
"2023-07-16 23:00",5.00187079008962,"Approved","OW387"
"2023-07-17 00:00",5.00190225992775,"Approved","OW387"
"2023-07-17 01:00",5.00193372976588,"Approved","OW387"
"2023-07-17 02:00",5.001965199604,"Approved","OW387"
"2023-07-17 03:00",5.00199666944213,"Approved","OW387"
"2023-07-17 04:00",5.00102813928026,"Approved","OW387"
"2023-07-17 05:00",5.00105960911839,"Approved","OW387"
"2023-07-17 06:00",5.00209107895651,"Approved","OW387"
"2023-07-17 07:00",5.00212254879464,"Approved","OW387"
"2023-07-17 08:00",5.00115401863277,"Approved","OW387"
"2023-07-17 09:00",5.00118548847089,"Approved","OW387"
"2023-07-17 10:00",5.00221695830902,"Approved","OW387"
"2023-07-17 11:00",5.00224842814715,"Approved","OW387"
"2023-07-17 12:00",5.00327989798527,"Approved","OW387"
"2023-07-17 13:00",5.0043113678234,"Approved","OW387"
"2023-07-17 14:00",5.00334283766153,"Approved","OW387"
"2023-07-17 15:00",5.00337430749966,"Approved","OW387"
"2023-07-17 16:00",5.00440577733778,"Approved","OW387"
"2023-07-17 17:00",5.00443724717591,"Approved","OW387"
"2023-07-17 18:00",5.00446871701404,"Approved","OW387"
"2023-07-17 19:00",5.00650018685216,"Approved","OW387"
"2023-07-17 20:00",5.00553165669029,"Approved","OW387"
"2023-07-17 21:00",5.00556312652842,"Approved","OW387"
"2023-07-17 22:00",5.00559459636654,"Approved","OW387"
"2023-07-17 23:00",5.00562606620467,"Approved","OW387"
"2023-07-18 00:00",5.0066575360428,"Approved","OW387"
"2023-07-18 01:00",5.00668900588093,"Approved","OW387"
"2023-07-18 02:00",5.00772047571905,"Approved","OW387"
"2023-07-18 03:00",5.00775194555718,"Approved","OW387"
"2023-07-18 04:00",5.00778341539531,"Approved","OW387"
"2023-07-18 05:00",5.00781488523343,"Approved","OW387"
"2023-07-18 06:00",5.00884635507156,"Approved","OW387"
"2023-07-18 07:00",5.00887782490969,"Approved","OW387"
"2023-07-18 08:00",5.00890929474781,"Approved","OW387"
"2023-07-18 09:00",5.00894076458594,"Approved","OW387"
"2023-07-18 10:00",5.00997223442407,"Approved","OW387"
"2023-07-18 11:00",5.0100037042622,"Approved","OW387"
"2023-07-18 12:00",5.01003517410032,"Approved","OW387"
"2023-07-18 13:00",5.01006664393845,"Approved","OW387"
"2023-07-18 14:00",5.01009811377658,"Approved","OW387"
"2023-07-18 15:00",5.0101295836147,"Approved","OW387"
"2023-07-18 16:00",5.00916105345283,"Approved","OW387"
"2023-07-18 17:00",5.01019252329096,"Approved","OW387"
"2023-07-18 18:00",5.01022399312909,"Approved","OW387"
"2023-07-18 19:00",5.01025546296721,"Approved","OW387"
"2023-07-18 20:00",5.01128693280534,"Approved","OW387"
"2023-07-18 21:00",5.01231840264347,"Approved","OW387"
"2023-07-18 22:00",5.01234987248159,"Approved","OW387"
"2023-07-18 23:00",5.01238134231972,"Approved","OW387"
"2023-07-19 00:00",5.01241281215785,"Approved","OW387"
"2023-07-19 01:00",5.01244428199597,"Approved","OW387"
"2023-07-19 02:00",5.0124757518341,"Approved","OW387"
"2023-07-19 03:00",5.01250722167223,"Approved","OW387"
"2023-07-19 04:00",5.01353869151036,"Approved","OW387"
"2023-07-19 05:00",5.01357016134848,"Approved","OW387"
"2023-07-19 06:00",5.01360163118661,"Approved","OW387"
"2023-07-19 07:00",5.01363310102474,"Approved","OW387"
"2023-07-19 08:00",5.01466457086286,"Approved","OW387"
"2023-07-19 09:00",5.01469604070099,"Approved","OW387"
"2023-07-19 10:00",5.01472751053912,"Approved","OW387"
"2023-07-19 11:00",5.01575898037724,"Approved","OW387"
"2023-07-19 12:00",5.01579045021537,"Approved","OW387"
"2023-07-19 13:00",5.0168219200535,"Approved","OW387"
"2023-07-19 14:00",5.01685338989163,"Approved","OW387"
"2023-07-19 15:00",5.01688485972975,"Approved","OW387"
"2023-07-19 16:00",5.01491632956788,"Approved","OW387"
"2023-07-19 17:00",5.01594779940601,"Approved","OW387"
"2023-07-19 18:00",5.01597926924413,"Approved","OW387"
"2023-07-19 19:00",5.01501073908226,"Approved","OW387"
"2023-07-19 20:00",5.01604220892039,"Approved","OW387"
"2023-07-19 21:00",5.01607367875851,"Approved","OW387"
"2023-07-19 22:00",5.01610514859664,"Approved","OW387"
"2023-07-19 23:00",5.01613661843477,"Approved","OW387"
"2023-07-20 00:00",5.0171680882729,"Approved","OW387"
"2023-07-20 01:00",5.01619955811102,"Approved","OW387"
"2023-07-20 02:00",5.01723102794915,"Approved","OW387"
"2023-07-20 03:00",5.01726249778728,"Approved","OW387"
"2023-07-20 04:00",5.0172939676254,"Approved","OW387"
"2023-07-20 05:00",5.01832543746353,"Approved","OW387"
"2023-07-20 06:00",5.01735690730166,"Approved","OW387"
"2023-07-20 07:00",5.01738837713979,"Approved","OW387"
"2023-07-20 08:00",5.01741984697791,"Approved","OW387"
"2023-07-20 09:00",5.01745131681604,"Approved","OW387"
"2023-07-20 10:00",5.01748278665417,"Approved","OW387"
"2023-07-20 11:00",5.01851425649229,"Approved","OW387"
"2023-07-20 12:00",5.01854572633042,"Approved","OW387"
"2023-07-20 13:00",5.01857719616855,"Approved","OW387"
"2023-07-20 14:00",5.01960866600667,"Approved","OW387"
"2023-07-20 15:00",5.0206401358448,"Approved","OW387"
"2023-07-20 16:00",5.02167160568293,"Approved","OW387"
"2023-07-20 17:00",5.02270307552106,"Approved","OW387"
"2023-07-20 18:00",5.02273454535918,"Approved","OW387"
"2023-07-20 19:00",5.02276601519731,"Approved","OW387"
"2023-07-20 20:00",5.02379748503544,"Approved","OW387"
"2023-07-20 21:00",5.02482895487356,"Approved","OW387"
"2023-07-20 22:00",5.02486042471169,"Approved","OW387"
"2023-07-20 23:00",5.02489189454982,"Approved","OW387"
"2023-07-21 00:00",5.02492336438794,"Approved","OW387"
"2023-07-21 01:00",5.02595483422607,"Approved","OW387"
"2023-07-21 02:00",5.0269863040642,"Approved","OW387"
"2023-07-21 03:00",5.02801777390233,"Approved","OW387"
"2023-07-21 04:00",5.02804924374045,"Approved","OW387"
"2023-07-21 05:00",5.02808071357858,"Approved","OW387"
"2023-07-21 06:00",5.02911218341671,"Approved","OW387"
"2023-07-21 07:00",5.03114365325483,"Approved","OW387"
"2023-07-21 08:00",5.03117512309296,"Approved","OW387"
"2023-07-21 09:00",5.03220659293109,"Approved","OW387"
"2023-07-21 10:00",5.03123806276921,"Approved","OW387"
"2023-07-21 11:00",5.03226953260734,"Approved","OW387"
"2023-07-21 12:00",5.03330100244547,"Approved","OW387"
"2023-07-21 13:00",5.0333324722836,"Approved","OW387"
"2023-07-21 14:00",5.03536394212172,"Approved","OW387"
"2023-07-21 15:00",5.03639541195985,"Approved","OW387"
"2023-07-21 16:00",5.03742688179798,"Approved","OW387"
"2023-07-21 17:00",5.0384583516361,"Approved","OW387"
"2023-07-21 18:00",5.03948982147423,"Approved","OW387"
"2023-07-21 19:00",5.04152129131236,"Approved","OW387"
"2023-07-21 20:00",5.04155276115048,"Approved","OW387"
"2023-07-21 21:00",5.04258423098861,"Approved","OW387"
"2023-07-21 22:00",5.04361570082674,"Approved","OW387"
"2023-07-21 23:00",5.04464717066487,"Approved","OW387"
"2023-07-22 00:00",5.04567864050299,"Approved","OW387"
"2023-07-22 01:00",5.04671011034112,"Approved","OW387"
"2023-07-22 02:00",5.06174158017925,"Approved","OW387"
"2023-07-22 03:00",5.09277305001737,"Approved","OW387"
"2023-07-22 04:00",5.1138045198555,"Approved","OW387"
"2023-07-22 05:00",5.12783598969363,"Approved","OW387"
"2023-07-22 06:00",5.13986745953175,"Approved","OW387"
"2023-07-22 07:00",5.15089892936988,"Approved","OW387"
"2023-07-22 08:00",5.16293039920801,"Approved","OW387"
"2023-07-22 09:00",5.17696186904614,"Approved","OW387"
"2023-07-22 10:00",5.19299333888426,"Approved","OW387"
"2023-07-22 11:00",5.20802480872239,"Approved","OW387"
"2023-07-22 12:00",5.22005627856052,"Approved","OW387"
"2023-07-22 13:00",5.23208774839864,"Approved","OW387"
"2023-07-22 14:00",5.24411921823677,"Approved","OW387"
"2023-07-22 15:00",5.2551506880749,"Approved","OW387"
"2023-07-22 16:00",5.26618215791303,"Approved","OW387"
"2023-07-22 17:00",5.27521362775115,"Approved","OW387"
"2023-07-22 18:00",5.28724509758928,"Approved","OW387"
"2023-07-22 19:00",5.30127656742741,"Approved","OW387"
"2023-07-22 20:00",5.31230803726553,"Approved","OW387"
"2023-07-22 21:00",5.32333950710366,"Approved","OW387"
"2023-07-22 22:00",5.33537097694179,"Approved","OW387"
"2023-07-22 23:00",5.34640244677991,"Approved","OW387"
"2023-07-23 00:00",5.35743391661804,"Approved","OW387"
"2023-07-23 01:00",5.36846538645617,"Approved","OW387"
"2023-07-23 02:00",5.38049685629429,"Approved","OW387"
"2023-07-23 03:00",5.39152832613242,"Approved","OW387"
"2023-07-23 04:00",5.40255979597055,"Approved","OW387"
"2023-07-23 05:00",5.41359126580868,"Approved","OW387"
"2023-07-23 06:00",5.4266227356468,"Approved","OW387"
"2023-07-23 07:00",5.43865420548493,"Approved","OW387"
"2023-07-23 08:00",5.45068567532306,"Approved","OW387"
"2023-07-23 09:00",5.46271714516118,"Approved","OW387"
"2023-07-23 10:00",5.47274861499931,"Approved","OW387"
"2023-07-23 11:00",5.48278008483744,"Approved","OW387"
"2023-07-23 12:00",5.48981155467557,"Approved","OW387"
"2023-07-23 13:00",5.49884302451369,"Approved","OW387"
"2023-07-23 14:00",5.50787449435182,"Approved","OW387"
"2023-07-23 15:00",5.51690596418995,"Approved","OW387"
"2023-07-23 16:00",5.52493743402807,"Approved","OW387"
"2023-07-23 17:00",5.5339689038662,"Approved","OW387"
"2023-07-23 18:00",5.54300037370433,"Approved","OW387"
"2023-07-23 19:00",5.55303184354245,"Approved","OW387"
"2023-07-23 20:00",5.56306331338058,"Approved","OW387"
"2023-07-23 21:00",5.57309478321871,"Approved","OW387"
"2023-07-23 22:00",5.58212625305684,"Approved","OW387"
"2023-07-23 23:00",5.58915772289496,"Approved","OW387"
"2023-07-24 00:00",5.59618919273309,"Approved","OW387"
"2023-07-24 01:00",5.60622066257122,"Approved","OW387"
"2023-07-24 02:00",5.61625213240934,"Approved","OW387"
"2023-07-24 03:00",5.62928360224747,"Approved","OW387"
"2023-07-24 04:00",5.6403150720856,"Approved","OW387"
"2023-07-24 05:00",5.64934654192372,"Approved","OW387"
"2023-07-24 06:00",5.65937801176185,"Approved","OW387"
"2023-07-24 07:00",5.66940948159998,"Approved","OW387"
"2023-07-24 08:00",5.68044095143811,"Approved","OW387"
"2023-07-24 09:00",5.68947242127623,"Approved","OW387"
"2023-07-24 10:00",5.69850389111436,"Approved","OW387"
"2023-07-24 11:00",5.70953536095249,"Approved","OW387"
"2023-07-24 12:00",5.72056683079061,"Approved","OW387"
"2023-07-24 13:00",5.73159830062874,"Approved","OW387"
"2023-07-24 14:00",5.74462977046687,"Approved","OW387"
"2023-07-24 15:00",5.75666124030499,"Approved","OW387"
"2023-07-24 16:00",5.76869271014312,"Approved","OW387"
"2023-07-24 17:00",5.78172417998125,"Approved","OW387"
"2023-07-24 18:00",5.79575564981938,"Approved","OW387"
"2023-07-24 19:00",5.8057871196575,"Approved","OW387"
"2023-07-24 20:00",5.81581858949563,"Approved","OW387"
"2023-07-24 21:00",5.82785005933376,"Approved","OW387"
"2023-07-24 22:00",5.83988152917188,"Approved","OW387"
"2023-07-24 23:00",5.85191299901001,"Approved","OW387"
"2023-07-25 00:00",5.86594446884814,"Approved","OW387"
"2023-07-25 01:00",5.87997593868627,"Approved","OW387"
"2023-07-25 02:00",5.89400740852439,"Approved","OW387"
"2023-07-25 03:00",5.90703887836252,"Approved","OW387"
"2023-07-25 04:00",5.91907034820065,"Approved","OW387"
"2023-07-25 05:00",5.93110181803877,"Approved","OW387"
"2023-07-25 06:00",5.9431332878769,"Approved","OW387"
"2023-07-25 07:00",5.95616475771503,"Approved","OW387"
"2023-07-25 08:00",5.96919622755315,"Approved","OW387"
"2023-07-25 09:00",5.97922769739128,"Approved","OW387"
"2023-07-25 10:00",5.99225916722941,"Approved","OW387"
"2023-07-25 11:00",6.00629063706754,"Approved","OW387"
"2023-07-25 12:00",6.02032210690566,"Approved","OW387"
"2023-07-25 13:00",6.03435357674379,"Approved","OW387"
"2023-07-25 14:00",6.04538504658192,"Approved","OW387"
"2023-07-25 15:00",6.05541651642004,"Approved","OW387"
"2023-07-25 16:00",6.06744798625817,"Approved","OW387"
"2023-07-25 17:00",6.0754794560963,"Approved","OW387"
"2023-07-25 18:00",6.08651092593442,"Approved","OW387"
"2023-07-25 19:00",6.09654239577255,"Approved","OW387"
"2023-07-25 20:00",6.10557386561068,"Approved","OW387"
"2023-07-25 21:00",6.11360533544881,"Approved","OW387"
"2023-07-25 22:00",6.12263680528693,"Approved","OW387"
"2023-07-25 23:00",6.13066827512506,"Approved","OW387"
"2023-07-26 00:00",6.13969974496319,"Approved","OW387"
"2023-07-26 01:00",6.14973121480131,"Approved","OW387"
"2023-07-26 02:00",6.16276268463944,"Approved","OW387"
"2023-07-26 03:00",6.17379415447757,"Approved","OW387"
"2023-07-26 04:00",6.18282562431569,"Approved","OW387"
"2023-07-26 05:00",6.18985709415382,"Approved","OW387"
"2023-07-26 06:00",6.19588856399195,"Approved","OW387"
"2023-07-26 07:00",6.20492003383008,"Approved","OW387"
"2023-07-26 08:00",6.2149515036682,"Approved","OW387"
"2023-07-26 09:00",6.22498297350633,"Approved","OW387"
"2023-07-26 10:00",6.23501444334446,"Approved","OW387"
"2023-07-26 11:00",6.24104591318258,"Approved","OW387"
"2023-07-26 12:00",6.24707738302071,"Approved","OW387"
"2023-07-26 13:00",6.25610885285884,"Approved","OW387"
"2023-07-26 14:00",6.26714032269697,"Approved","OW387"
"2023-07-26 15:00",6.27817179253509,"Approved","OW387"
"2023-07-26 16:00",6.29020326237322,"Approved","OW387"
"2023-07-26 17:00",6.30223473221135,"Approved","OW387"
"2023-07-26 18:00",6.31526620204947,"Approved","OW387"
"2023-07-26 19:00",6.3292976718876,"Approved","OW387"
"2023-07-26 20:00",6.34132914172573,"Approved","OW387"
"2023-07-26 21:00",6.35436061156385,"Approved","OW387"
"2023-07-26 22:00",6.36639208140198,"Approved","OW387"
"2023-07-26 23:00",6.37742355124011,"Approved","OW387"
"2023-07-27 00:00",6.38545502107823,"Approved","OW387"
"2023-07-27 01:00",6.39448649091636,"Approved","OW387"
"2023-07-27 02:00",6.40751796075449,"Approved","OW387"
"2023-07-27 03:00",6.41854943059262,"Approved","OW387"
"2023-07-27 04:00",6.43158090043074,"Approved","OW387"
"2023-07-27 05:00",6.44261237026887,"Approved","OW387"
"2023-07-27 06:00",6.453643840107,"Approved","OW387"
"2023-07-27 07:00",6.46467530994512,"Approved","OW387"
"2023-07-27 08:00",6.47470677978325,"Approved","OW387"
"2023-07-27 09:00",6.48473824962138,"Approved","OW387"
"2023-07-27 10:00",6.49576971945951,"Approved","OW387"
"2023-07-27 11:00",6.50680118929763,"Approved","OW387"
"2023-07-27 12:00",6.51783265913576,"Approved","OW387"
"2023-07-27 13:00",6.52786412897389,"Approved","OW387"
"2023-07-27 14:00",6.53989559881201,"Approved","OW387"
"2023-07-27 15:00",6.55092706865014,"Approved","OW387"
"2023-07-27 16:00",6.55995853848827,"Approved","OW387"
"2023-07-27 17:00",6.57399000832639,"Approved","OW387"
"2023-07-27 18:00",6.58602147816452,"Approved","OW387"
"2023-07-27 19:00",6.59605294800265,"Approved","OW387"
"2023-07-27 20:00",6.60508441784078,"Approved","OW387"
"2023-07-27 21:00",6.6141158876789,"Approved","OW387"
"2023-07-27 22:00",6.62414735751703,"Approved","OW387"
"2023-07-27 23:00",6.63317882735516,"Approved","OW387"
"2023-07-28 00:00",6.64221029719328,"Approved","OW387"
"2023-07-28 01:00",6.65224176703141,"Approved","OW387"
"2023-07-28 02:00",6.66227323686954,"Approved","OW387"
"2023-07-28 03:00",6.67230470670767,"Approved","OW387"
"2023-07-28 04:00",6.68333617654579,"Approved","OW387"
"2023-07-28 05:00",6.69436764638392,"Approved","OW387"
"2023-07-28 06:00",6.70439911622205,"Approved","OW387"
"2023-07-28 07:00",6.71143058606017,"Approved","OW387"
"2023-07-28 08:00",6.7204620558983,"Approved","OW387"
"2023-07-28 09:00",6.72749352573643,"Approved","OW387"
"2023-07-28 10:00",6.73252499557455,"Approved","OW387"
"2023-07-28 11:00",6.73655646541268,"Approved","OW387"
"2023-07-28 12:00",6.74258793525081,"Approved","OW387"
"2023-07-28 13:00",6.74761940508894,"Approved","OW387"
"2023-07-28 14:00",6.75465087492706,"Approved","OW387"
"2023-07-28 15:00",6.76068234476519,"Approved","OW387"
"2023-07-28 16:00",6.76771381460332,"Approved","OW387"
"2023-07-28 17:00",6.77474528444144,"Approved","OW387"
"2023-07-28 18:00",6.78377675427957,"Approved","OW387"
"2023-07-28 19:00",6.7928082241177,"Approved","OW387"
"2023-07-28 20:00",6.80183969395582,"Approved","OW387"
"2023-07-28 21:00",6.81087116379395,"Approved","OW387"
"2023-07-28 22:00",6.82190263363208,"Approved","OW387"
"2023-07-28 23:00",6.8309341034702,"Approved","OW387"
"2023-07-29 00:00",6.83896557330833,"Approved","OW387"
"2023-07-29 01:00",6.84999704314646,"Approved","OW387"
"2023-07-29 02:00",6.86202851298459,"Approved","OW387"
"2023-07-29 03:00",6.87405998282271,"Approved","OW387"
"2023-07-29 04:00",6.88709145266084,"Approved","OW387"
"2023-07-29 05:00",6.90012292249897,"Approved","OW387"
"2023-07-29 06:00",6.91215439233709,"Approved","OW387"
"2023-07-29 07:00",6.92318586217522,"Approved","OW387"
"2023-07-29 08:00",6.93921733201335,"Approved","OW387"
"2023-07-29 09:00",6.95424880185148,"Approved","OW387"
"2023-07-29 10:00",6.9672802716896,"Approved","OW387"
"2023-07-29 11:00",6.97931174152773,"Approved","OW387"
"2023-07-29 12:00",6.99134321136586,"Approved","OW387"
"2023-07-29 13:00",7.00337468120398,"Approved","OW387"
"2023-07-29 14:00",7.01540615104211,"Approved","OW387"
"2023-07-29 15:00",7.02743762088024,"Approved","OW387"